Location: Stara Lesna
(49.1528°N, 20.2911°E)
Time: 09:54:04
(UTC+02:00)

CBERS-1 - Pass Details

Date: 13 July 2020
Orbit: 770 x 776 km, 98.6° (Epoch: 05 August)

Event Time Altitude Azimuth Distance (km) Brightness Sun altitude
Rises 03:25:20 0° 12° (NNE) 3,270 8.5 -10.6°
Reaches altitude 10° 03:27:41 10° 9° (N) 2,338 7.6 -10.3°
Maximum altitude 03:32:45 62° 290° (WNW) 872 4.2 -9.8°
Enters shadow 03:37:32 11° 211° (SSW) 2,217 5.7 -9.3°
